QPF
0.00 0.00 0.00 0.00 0.00 0.01 0.00 0.00 0.00 0.00 0.00 0.01 0.01 0.01 0.02 0.02 0.03 0.04 0.04 0.04 0.04 0.03 0.02 0.02 0.02 0.02 0.02 0.02 0.02 0.02 0.02 0.02 0.03 0.03 0.02 0.02 0.03 0.04 0.04 0.04 0.05 0.06 0.07 0.09
0.00 0.00 0.00 0.00 0.00 0.01 0.01 0.01 0.00 0.00 0.00 0.00 0.00 0.01 0.01 0.02 0.03 0.05 0.04 0.03 0.03 0.02 0.03 0.03 0.02 0.02 0.02 0.02 0.02 0.02 0.02 0.03 0.03 0.03 0.03 0.02 0.02 0.03 0.04 0.04 0.05 0.07 0.09 0.09
0.00 0.00 0.00 0.00 0.00 0.00 0.01 0.00 0.00 0.01 0.00 0.00 0.01 0.01 0.02 0.02 0.05 0.06 0.05 0.03 0.02 0.02 0.03 0.04 0.03 0.02 0.02 0.02 0.02 0.02 0.02 0.02 0.03 0.03 0.03 0.02 0.03 0.04 0.04 0.05 0.06 0.07 0.09 0.09
0.00 0.00 0.00 0.00 0.00 0.00 0.00 0.00 0.01 0.01 0.01 0.01 0.01 0.02 0.02 0.02 0.05 0.08 0.08 0.05 0.03 0.02 0.02 0.03 0.03 0.02 0.02 0.02 0.02 0.02 0.01 0.02 0.02 0.02 0.03 0.04 0.04 0.05 0.05 0.06 0.06 0.07 0.10 0.11
0.00 0.00 0.00 0.00 0.00 0.00 0.00 0.01 0.01 0.01 0.01 0.02 0.02 0.04 0.08 0.08 0.08 0.06 0.06 0.06 0.04 0.03 0.02 0.02 0.01 0.02 0.02 0.02 0.03 0.03 0.02 0.02 0.02 0.02 0.03 0.04 0.05 0.05 0.06 0.08 0.09 0.11 0.10 0.09
0.00 0.00 0.00 0.00 0.00 0.00 0.00 0.00 0.01 0.01 0.01 0.02 0.02 0.04 0.07 0.09 0.09 0.07 0.05 0.05 0.04 0.03 0.03 0.02 0.02 0.02 0.02 0.02 0.03 0.03 0.02 0.02 0.02 0.03 0.04 0.04 0.05 0.06 0.07 0.07 0.07 0.06 0.06 0.07
0.00 0.00 0.00 0.00 0.00 0.00 0.00 0.01 0.01 0.01 0.01 0.01 0.01 0.03 0.05 0.06 0.07 0.06 0.06 0.06 0.04 0.02 0.02 0.02 0.01 0.02 0.03 0.03 0.02 0.02 0.02 0.02 0.02 0.02 0.02 0.03 0.05 0.05 0.06 0.07 0.06 0.06 0.05 0.05
0.01 0.00 0.00 0.00 0.00 0.01 0.00 0.00 0.01 0.01 0.01 0.01 0.01 0.02 0.02 0.02 0.02 0.02 0.02 0.02 0.02 0.02 0.01 0.01 0.01 0.03 0.04 0.03 0.02 0.02 0.02 0.02 0.02 0.02 0.02 0.03 0.05 0.05 0.05 0.05 0.05 0.05 0.05 0.05
0.01 0.00 0.00 0.00 0.00 0.00 0.00 0.00 0.00 0.02 0.03 0.02 0.01 0.01 0.01 0.01 0.01 0.01 0.01 0.01 0.02 0.01 0.01 0.01 0.01 0.03 0.05 0.04 0.04 0.03 0.04 0.03 0.03 0.03 0.03 0.04 0.05 0.06 0.05 0.04 0.04 0.05 0.06 0.06
0.01 0.01 0.01 0.01 0.00 0.00 0.00 0.00 0.01 0.03 0.04 0.02 0.01 0.01 0.01 0.01 0.01 0.01 0.01 0.01 0.01 0.01 0.01 0.01 0.01 0.02 0.03 0.04 0.05 0.04 0.04 0.03 0.03 0.05 0.05 0.04 0.04 0.05 0.05 0.04 0.04 0.05 0.04 0.04
0.01 0.01 0.01 0.01 0.01 0.00 0.00 0.00 0.01 0.03 0.04 0.02 0.01 0.01 0.01 0.01 0.01 0.00 0.01 0.01 0.01 0.01 0.01 0.02 0.01 0.01 0.01 0.02 0.02 0.03 0.03 0.03 0.03 0.04 0.04 0.03 0.03 0.04 0.05 0.05 0.05 0.05 0.05 0.04
0.00 0.01 0.01 0.01 0.00 0.00 0.00 0.00 0.01 0.02 0.04 0.02 0.02 0.02 0.02 0.02 0.02 0.01 0.01 0.01 0.01 0.01 0.01 0.02 0.02 0.01 0.01 0.01 0.01 0.02 0.02 0.02 0.03 0.05 0.03 0.03 0.03 0.03 0.04 0.05 0.05 0.06 0.05 0.05
0.00 0.01 0.01 0.01 0.00 0.00 0.00 0.00 0.00 0.01 0.02 0.02 0.01 0.02 0.02 0.02 0.02 0.02 0.03 0.04 0.03 0.01 0.01 0.02 0.02 0.02 0.02 0.01 0.01 0.01 0.02 0.02 0.04 0.06 0.05 0.04 0.03 0.03 0.03 0.05 0.06 0.05 0.05 0.05
0.00 0.00 0.01 0.00 0.00 0.00 0.00 0.00 0.00 0.01 0.01 0.01 0.01 0.01 0.01 0.01 0.01 0.02 0.04 0.05 0.04 0.02 0.01 0.02 0.02 0.03 0.02 0.02 0.02 0.03 0.04 0.04 0.06 0.05 0.03 0.03 0.03 0.02 0.02 0.03 0.05 0.05 0.05 0.05
0.00 0.01 0.01 0.00 0.00 0.00 0.00 0.00 0.01 0.01 0.01 0.01 0.01 0.01 0.01 0.01 0.01 0.01 0.03 0.04 0.04 0.03 0.02 0.02 0.02 0.03 0.02 0.03 0.04 0.06 0.05 0.05 0.07 0.05 0.02 0.02 0.02 0.03 0.03 0.03 0.04 0.04 0.03 0.02
0.01 0.01 0.01 0.00 0.00 0.00 0.00 0.00 0.01 0.01 0.01 0.01 0.01 0.01 0.02 0.01 0.00 0.01 0.02 0.03 0.03 0.02 0.02 0.02 0.03 0.03 0.03 0.05 0.07 0.06 0.06 0.07 0.08 0.04 0.02 0.02 0.01 0.01 0.02 0.02 0.02 0.02 0.02 0.02
0.00 0.01 0.01 0.01 0.01 0.01 0.01 0.01 0.00 0.00 0.00 0.00 0.01 0.01 0.01 0.01 0.01 0.02 0.03 0.04 0.03 0.02 0.02 0.02 0.03 0.04 0.04 0.06 0.06 0.06 0.08 0.09 0.06 0.03 0.03 0.02 0.02 0.02 0.02 0.01 0.01 0.01 0.01 0.02
0.00 0.01 0.01 0.01 0.02 0.01 0.01 0.00 0.00 0.00 0.01 0.00 0.00 0.01 0.01 0.01 0.01 0.02 0.04 0.05 0.03 0.02 0.02 0.02 0.02 0.02 0.03 0.05 0.05 0.07 0.10 0.06 0.02 0.02 0.02 0.02 0.02 0.02 0.02 0.02 0.01 0.01 0.02 0.02
0.00 0.01 0.02 0.02 0.01 0.01 0.01 0.00 0.00 0.00 0.01 0.01 0.00 0.00 0.00 0.00 0.01 0.01 0.03 0.05 0.04 0.03 0.02 0.02 0.02 0.02 0.03 0.05 0.07 0.07 0.04 0.02 0.01 0.02 0.02 0.02 0.02 0.02 0.01 0.01 0.01 0.01 0.01 0.01
0.00 0.00 0.01 0.01 0.01 0.01 0.01 0.01 0.00 0.01 0.01 0.01 0.01 0.00 0.00 0.00 0.01 0.01 0.02 0.04 0.05 0.03 0.02 0.02 0.02 0.02 0.03 0.04 0.04 0.02 0.01 0.01 0.02 0.02 0.03 0.03 0.02 0.01 0.01 0.01 0.01 0.01 0.01 0.01
0.01 0.01 0.01 0.01 0.01 0.01 0.01 0.01 0.01 0.01 0.01 0.00 0.01 0.00 0.00 0.00 0.02 0.02 0.02 0.04 0.05 0.04 0.02 0.02 0.02 0.03 0.03 0.04 0.02 0.02 0.01 0.02 0.02 0.03 0.02 0.01 0.01 0.01 0.01 0.01 0.02 0.01 0.01 0.01
0.00 0.00 0.00 0.01 0.01 0.02 0.01 0.01 0.01 0.01 0.00 0.00 0.00 0.00 0.00 0.01 0.01 0.03 0.04 0.05 0.05 0.04 0.03 0.03 0.03 0.03 0.03 0.03 0.02 0.02 0.02 0.02 0.04 0.03 0.02 0.01 0.01 0.01 0.01 0.02 0.02 0.02 0.01 0.01
0.00 0.00 0.00 0.00 0.01 0.00 0.00 0.01 0.00 0.00 0.00 0.00 0.00 0.00 0.00 0.01 0.01 0.02 0.02 0.03 0.04 0.03 0.04 0.04 0.03 0.02 0.02 0.02 0.02 0.03 0.02 0.03 0.03 0.02 0.02 0.02 0.01 0.01 0.01 0.02 0.02 0.01 0.01 0.01
0.00 0.00 0.00 0.00 0.00 0.00 0.00 0.00 0.00 0.00 0.00 0.00 0.00 0.00 0.01 0.01 0.02 0.01 0.01 0.01 0.02 0.03 0.03 0.03 0.03 0.02 0.02 0.02 0.02 0.03 0.02 0.02 0.02 0.01 0.01 0.01 0.01 0.01 0.02 0.03 0.03 0.03 0.02 0.01
0.01 0.01 0.01 0.01 0.00 0.00 0.00 0.00 0.00 0.00 0.00 0.00 0.00 0.00 0.01 0.02 0.01 0.01 0.01 0.01 0.02 0.03 0.03 0.03 0.03 0.02 0.02 0.02 0.02 0.02 0.02 0.02 0.01 0.01 0.00 0.00 0.01 0.01 0.02 0.02 0.02 0.02 0.02 0.02
0.00 0.00 0.00 0.00 0.00 0.00 0.00 0.00 0.00 0.01 0.00 0.00 0.00 0.01 0.01 0.02 0.01 0.01 0.01 0.01 0.01 0.02 0.02 0.01 0.01 0.01 0.01 0.01 0.01 0.01 0.02 0.02 0.01 0.01 0.01 0.01 0.01 0.01 0.01 0.02 0.01 0.01 0.01 0.01
MSLP
1010.84 1011.04 1011.17 1011.26 1011.36 1011.52 1011.77 1012.11 1012.53 1012.99 1013.45 1013.85 1014.16 1014.37 1014.46 1014.46 1014.40 1014.30 1014.21 1014.12 1014.06 1014.01 1013.97 1013.92 1013.84 1013.72 1013.56 1013.35 1013.09 1012.79 1012.43 1012.01 1011.54 1011.02 1010.45 1009.85 1009.23 1008.60 1008.00 1007.42 1006.89 1006.41 1005.99 1005.63
1010.94 1011.14 1011.29 1011.41 1011.56 1011.77 1012.06 1012.42 1012.84 1013.25 1013.63 1013.93 1014.13 1014.23 1014.24 1014.19 1014.12 1014.06 1014.03 1014.03 1014.06 1014.10 1014.13 1014.12 1014.06 1013.94 1013.76 1013.53 1013.25 1012.92 1012.55 1012.14 1011.68 1011.16 1010.59 1009.98 1009.34 1008.69 1008.06 1007.46 1006.92 1006.45 1006.05 1005.73
1010.90 1011.10 1011.26 1011.42 1011.63 1011.89 1012.22 1012.59 1012.98 1013.33 1013.61 1013.78 1013.85 1013.83 1013.74 1013.64 1013.57 1013.55 1013.60 1013.72 1013.88 1014.04 1014.17 1014.24 1014.23 1014.12 1013.94 1013.69 1013.39 1013.05 1012.67 1012.25 1011.78 1011.26 1010.69 1010.07 1009.42 1008.76 1008.11 1007.52 1006.99 1006.54 1006.18 1005.91
1010.78 1010.97 1011.15 1011.35 1011.61 1011.92 1012.29 1012.68 1013.03 1013.32 1013.49 1013.54 1013.47 1013.32 1013.14 1012.98 1012.90 1012.92 1013.06 1013.29 1013.58 1013.88 1014.14 1014.30 1014.36 1014.30 1014.13 1013.87 1013.55 1013.18 1012.78 1012.34 1011.87 1011.35 1010.77 1010.15 1009.50 1008.84 1008.20 1007.62 1007.11 1006.70 1006.38 1006.15
1010.68 1010.84 1011.03 1011.27 1011.57 1011.94 1012.35 1012.75 1013.08 1013.31 1013.39 1013.33 1013.14 1012.87 1012.60 1012.38 1012.29 1012.34 1012.55 1012.88 1013.29 1013.72 1014.08 1014.35 1014.47 1014.45 1014.30 1014.05 1013.71 1013.32 1012.90 1012.44 1011.95 1011.43 1010.85 1010.24 1009.60 1008.96 1008.34 1007.78 1007.30 1006.91 1006.62 1006.42
1010.67 1010.80 1010.98 1011.24 1011.59 1012.00 1012.44 1012.86 1013.19 1013.38 1013.40 1013.25 1012.97 1012.61 1012.26 1011.99 1011.87 1011.94 1012.18 1012.59 1013.08 1013.60 1014.06 1014.40 1014.58 1014.60 1014.47 1014.21 1013.86 1013.44 1013.00 1012.52 1012.02 1011.49 1010.93 1010.33 1009.71 1009.09 1008.50 1007.96 1007.50 1007.13 1006.85 1006.65
1010.79 1010.88 1011.05 1011.32 1011.69 1012.13 1012.60 1013.04 1013.37 1013.55 1013.54 1013.34 1013.01 1012.59 1012.18 1011.87 1011.72 1011.78 1012.03 1012.46 1013.00 1013.56 1014.07 1014.45 1014.68 1014.72 1014.60 1014.33 1013.97 1013.53 1013.06 1012.56 1012.05 1011.52 1010.97 1010.39 1009.80 1009.21 1008.65 1008.13 1007.68 1007.32 1007.03 1006.83
1011.03 1011.09 1011.25 1011.51 1011.88 1012.33 1012.81 1013.26 1013.61 1013.79 1013.78 1013.58 1013.23 1012.80 1012.36 1012.02 1011.84 1011.86 1012.10 1012.51 1013.03 1013.60 1014.11 1014.51 1014.75 1014.80 1014.68 1014.40 1014.02 1013.56 1013.06 1012.55 1012.02 1011.49 1010.94 1010.39 1009.83 1009.27 1008.74 1008.24 1007.81 1007.44 1007.14 1006.91
1011.36 1011.40 1011.53 1011.76 1012.11 1012.55 1013.02 1013.47 1013.83 1014.03 1014.04 1013.87 1013.55 1013.13 1012.70 1012.35 1012.15 1012.14 1012.33 1012.69 1013.17 1013.69 1014.18 1014.56 1014.78 1014.82 1014.69 1014.41 1014.01 1013.53 1013.01 1012.47 1011.93 1011.39 1010.85 1010.32 1009.78 1009.25 1008.75 1008.28 1007.85 1007.49 1007.18 1006.93
1011.73 1011.75 1011.85 1012.05 1012.35 1012.74 1013.18 1013.61 1013.96 1014.18 1014.23 1014.11 1013.84 1013.48 1013.09 1012.76 1012.55 1012.51 1012.65 1012.95 1013.36 1013.81 1014.25 1014.58 1014.77 1014.80 1014.65 1014.36 1013.95 1013.45 1012.91 1012.35 1011.79 1011.24 1010.70 1010.17 1009.66 1009.16 1008.68 1008.24 1007.84 1007.48 1007.18 1006.92
1012.08 1012.10 1012.18 1012.33 1012.56 1012.88 1013.25 1013.62 1013.94 1014.17 1014.26 1014.19 1014.00 1013.71 1013.39 1013.11 1012.92 1012.87 1012.97 1013.21 1013.55 1013.93 1014.30 1014.58 1014.74 1014.74 1014.58 1014.28 1013.86 1013.35 1012.79 1012.21 1011.63 1011.07 1010.52 1010.00 1009.49 1009.02 1008.57 1008.16 1007.79 1007.46 1007.18 1006.95
1012.40 1012.44 1012.49 1012.58 1012.73 1012.95 1013.22 1013.51 1013.77 1013.98 1014.09 1014.08 1013.97 1013.77 1013.54 1013.33 1013.19 1013.15 1013.23 1013.43 1013.71 1014.04 1014.34 1014.57 1014.70 1014.68 1014.51 1014.21 1013.78 1013.27 1012.70 1012.10 1011.50 1010.91 1010.35 1009.83 1009.33 1008.88 1008.46 1008.09 1007.76 1007.48 1007.24 1007.04
1012.69 1012.75 1012.78 1012.81 1012.87 1012.97 1013.12 1013.29 1013.48 1013.64 1013.74 1013.77 1013.73 1013.64 1013.51 1013.39 1013.32 1013.33 1013.42 1013.60 1013.85 1014.12 1014.38 1014.57 1014.67 1014.63 1014.46 1014.16 1013.73 1013.22 1012.64 1012.03 1011.42 1010.81 1010.24 1009.71 1009.22 1008.78 1008.39 1008.06 1007.78 1007.55 1007.36 1007.21
1012.97 1013.06 1013.07 1013.04 1013.00 1012.98 1012.99 1013.04 1013.11 1013.20 1013.28 1013.33 1013.35 1013.34 1013.32 1013.30 1013.32 1013.40 1013.53 1013.73 1013.96 1014.21 1014.43 1014.59 1014.66 1014.61 1014.43 1014.13 1013.72 1013.21 1012.63 1012.02 1011.39 1010.78 1010.19 1009.66 1009.17 1008.74 1008.38 1008.09 1007.85 1007.66 1007.52 1007.42
1013.25 1013.36 1013.36 1013.28 1013.15 1013.00 1012.87 1012.79 1012.74 1012.74 1012.77 1012.82 1012.88 1012.95 1013.02 1013.12 1013.24 1013.39 1013.59 1013.81 1014.06 1014.29 1014.49 1014.63 1014.67 1014.61 1014.42 1014.12 1013.72 1013.22 1012.65 1012.04 1011.42 1010.80 1010.21 1009.67 1009.18 1008.77 1008.42 1008.15 1007.94 1007.79 1007.69 1007.62
1013.53 1013.65 1013.63 1013.50 1013.29 1013.04 1012.79 1012.57 1012.41 1012.31 1012.28 1012.31 1012.39 1012.52 1012.68 1012.87 1013.10 1013.34 1013.61 1013.88 1014.14 1014.37 1014.55 1014.66 1014.68 1014.59 1014.40 1014.10 1013.69 1013.21 1012.66 1012.06 1011.45 1010.84 1010.26 1009.71 1009.23 1008.81 1008.47 1008.20 1008.00 1007.86 1007.78 1007.73
1013.76 1013.88 1013.84 1013.67 1013.40 1013.07 1012.72 1012.39 1012.12 1011.93 1011.84 1011.84 1011.93 1012.10 1012.33 1012.62 1012.93 1013.26 1013.60 1013.91 1014.19 1014.42 1014.58 1014.66 1014.65 1014.53 1014.32 1014.01 1013.61 1013.14 1012.61 1012.04 1011.45 1010.85 1010.28 1009.74 1009.25 1008.83 1008.47 1008.19 1007.98 1007.83 1007.74 1007.68
1013.89 1013.99 1013.93 1013.74 1013.42 1013.04 1012.61 1012.21 1011.86 1011.60 1011.45 1011.43 1011.52 1011.72 1012.00 1012.36 1012.75 1013.15 1013.55 1013.90 1014.20 1014.42 1014.56 1014.60 1014.55 1014.40 1014.15 1013.83 1013.43 1012.98 1012.47 1011.92 1011.36 1010.79 1010.24 1009.70 1009.21 1008.76 1008.38 1008.07 1007.83 1007.65 1007.52 1007.44
1013.86 1013.92 1013.85 1013.63 1013.31 1012.89 1012.44 1011.99 1011.60 1011.29 1011.11 1011.06 1011.15 1011.37 1011.69 1012.10 1012.55 1013.01 1013.45 1013.83 1014.13 1014.34 1014.45 1014.45 1014.35 1014.16 1013.89 1013.55 1013.15 1012.70 1012.22 1011.71 1011.17 1010.63 1010.09 1009.56 1009.05 1008.59 1008.17 1007.82 1007.53 1007.31 1007.14 1007.02
1013.65 1013.66 1013.56 1013.35 1013.03 1012.62 1012.16 1011.71 1011.30 1010.97 1010.77 1010.71 1010.80 1011.04 1011.39 1011.83 1012.33 1012.82 1013.29 1013.69 1013.99 1014.18 1014.26 1014.22 1014.07 1013.84 1013.53 1013.17 1012.77 1012.33 1011.87 1011.38 1010.88 1010.36 1009.83 1009.30 1008.78 1008.29 1007.84 1007.44 1007.10 1006.84 1006.63 1006.49
1013.26 1013.23 1013.11 1012.90 1012.59 1012.21 1011.78 1011.35 1010.95 1010.63 1010.43 1010.38 1010.48 1010.72 1011.09 1011.56 1012.07 1012.59 1013.07 1013.48 1013.77 1013.94 1013.99 1013.91 1013.72 1013.45 1013.12 1012.74 1012.33 1011.90 1011.45 1010.98 1010.50 1010.00 1009.47 1008.94 1008.41 1007.88 1007.40 1006.96 1006.59 1006.29 1006.06 1005.90
1012.75 1012.67 1012.54 1012.33 1012.06 1011.71 1011.33 1010.93 1010.57 1010.28 1010.10 1010.06 1010.16 1010.42 1010.80 1011.28 1011.81 1012.34 1012.82 1013.22 1013.50 1013.65 1013.66 1013.55 1013.33 1013.03 1012.68 1012.28 1011.87 1011.44 1011.00 1010.54 1010.07 1009.57 1009.05 1008.50 1007.95 1007.40 1006.89 1006.42 1006.02 1005.70 1005.47 1005.31
1012.20 1012.08 1011.93 1011.74 1011.49 1011.19 1010.85 1010.50 1010.17 1009.92 1009.77 1009.75 1009.87 1010.14 1010.53 1011.01 1011.54 1012.07 1012.54 1012.93 1013.20 1013.33 1013.32 1013.18 1012.94 1012.62 1012.25 1011.84 1011.42 1010.99 1010.55 1010.09 1009.62 1009.11 1008.58 1008.02 1007.44 1006.87 1006.34 1005.85 1005.45 1005.13 1004.90 1004.77
1011.70 1011.55 1011.39 1011.19 1010.96 1010.69 1010.38 1010.08 1009.79 1009.58 1009.46 1009.47 1009.61 1009.89 1010.28 1010.76 1011.29 1011.81 1012.27 1012.64 1012.89 1013.00 1012.97 1012.82 1012.56 1012.23 1011.85 1011.43 1011.01 1010.57 1010.12 1009.66 1009.17 1008.65 1008.09 1007.51 1006.92 1006.33 1005.78 1005.29 1004.88 1004.57 1004.37 1004.26
1011.33 1011.15 1010.96 1010.75 1010.52 1010.26 1009.97 1009.69 1009.44 1009.25 1009.17 1009.20 1009.36 1009.65 1010.06 1010.54 1011.05 1011.56 1012.01 1012.36 1012.59 1012.68 1012.64 1012.47 1012.21 1011.87 1011.48 1011.06 1010.63 1010.18 1009.73 1009.25 1008.74 1008.20 1007.62 1007.01 1006.39 1005.78 1005.22 1004.73 1004.33 1004.03 1003.84 1003.75
1011.13 1010.90 1010.68 1010.44 1010.18 1009.90 1009.60 1009.33 1009.09 1008.93 1008.87 1008.92 1009.11 1009.42 1009.84 1010.32 1010.83 1011.32 1011.75 1012.08 1012.29 1012.36 1012.30 1012.12 1011.85 1011.51 1011.12 1010.70 1010.26 1009.81 1009.35 1008.85 1008.32 1007.75 1007.15 1006.52 1005.87 1005.25 1004.67 1004.17 1003.77 1003.47 1003.29 1003.21
Thickness
5775 5771 5766 5768 5771 5769 5766 5763 5761 5764 5770 5766 5760 5754 5755 5757 5756 5754 5753 5751 5747 5745 5745 5743 5740 5737 5734 5730 5726 5722 5719 5716 5713 5710 5708 5705 5704 5702 5700 5698 5695 5692 5690 5688
5768 5764 5772 5776 5772 5768 5764 5759 5760 5762 5766 5761 5755 5751 5753 5753 5752 5751 5748 5745 5743 5740 5738 5736 5734 5731 5728 5724 5720 5717 5713 5710 5706 5703 5700 5698 5696 5694 5693 5691 5687 5685 5683 5680
5765 5768 5774 5769 5765 5761 5761 5759 5758 5756 5758 5760 5751 5744 5747 5748 5748 5746 5745 5744 5741 5737 5733 5730 5727 5725 5722 5718 5714 5711 5706 5703 5699 5696 5694 5692 5689 5687 5686 5683 5681 5678 5675 5673
5769 5772 5769 5766 5762 5761 5757 5764 5760 5756 5751 5752 5748 5737 5739 5742 5739 5737 5738 5738 5736 5733 5730 5725 5722 5719 5716 5712 5709 5705 5700 5696 5693 5689 5687 5683 5681 5679 5677 5674 5673 5671 5669 5667
5764 5768 5766 5760 5760 5762 5759 5765 5761 5757 5752 5748 5748 5738 5736 5739 5730 5730 5732 5732 5730 5728 5725 5720 5717 5713 5711 5707 5703 5699 5694 5690 5687 5683 5680 5676 5675 5672 5671 5667 5665 5663 5663 5660
5769 5773 5769 5763 5766 5765 5764 5761 5758 5757 5755 5736 5741 5734 5730 5733 5728 5728 5729 5727 5724 5722 5719 5715 5713 5709 5705 5702 5698 5693 5687 5683 5681 5677 5674 5670 5667 5665 5662 5659 5658 5658 5657 5655
5760 5764 5767 5767 5759 5761 5760 5750 5741 5738 5738 5737 5742 5732 5725 5730 5730 5727 5723 5721 5720 5717 5714 5710 5706 5702 5698 5694 5690 5686 5682 5677 5675 5671 5668 5664 5661 5658 5655 5653 5653 5651 5651 5651
5748 5748 5756 5758 5753 5749 5752 5748 5731 5720 5726 5735 5736 5726 5726 5729 5726 5724 5723 5719 5716 5712 5709 5705 5701 5696 5692 5688 5684 5681 5677 5673 5669 5666 5662 5659 5656 5655 5653 5650 5648 5647 5646 5646
5745 5744 5756 5756 5758 5754 5747 5747 5748 5734 5732 5724 5730 5726 5722 5723 5719 5716 5714 5712 5708 5706 5703 5700 5696 5692 5687 5683 5679 5676 5672 5668 5665 5662 5658 5655 5653 5650 5648 5645 5644 5644 5642 5642
5749 5738 5749 5753 5757 5753 5752 5746 5739 5730 5712 5711 5721 5721 5715 5709 5707 5708 5706 5704 5703 5700 5698 5695 5692 5688 5684 5680 5676 5672 5668 5663 5660 5657 5654 5653 5649 5646 5644 5642 5640 5639 5638 5637
5749 5736 5740 5744 5738 5739 5739 5735 5732 5729 5722 5708 5706 5710 5714 5707 5704 5702 5701 5699 5697 5695 5693 5691 5688 5685 5681 5677 5674 5668 5664 5660 5656 5652 5649 5647 5645 5643 5640 5638 5637 5635 5634 5633
5742 5738 5733 5737 5743 5745 5739 5732 5727 5713 5710 5713 5708 5704 5713 5708 5704 5700 5696 5694 5692 5689 5688 5687 5684 5680 5677 5674 5670 5666 5661 5657 5653 5649 5646 5643 5641 5638 5636 5634 5633 5631 5630 5630
5737 5729 5721 5726 5729 5734 5730 5729 5726 5720 5712 5709 5704 5702 5708 5705 5699 5695 5691 5688 5686 5683 5682 5682 5679 5675 5672 5669 5666 5663 5659 5655 5651 5648 5644 5641 5638 5635 5632 5630 5629 5628 5627 5627
5735 5728 5722 5716 5721 5726 5722 5722 5722 5716 5710 5706 5704 5702 5701 5697 5693 5690 5687 5684 5681 5679 5677 5675 5672 5670 5667 5665 5662 5660 5657 5653 5650 5646 5642 5638 5635 5632 5630 5629 5628 5626 5625 5624
5731 5724 5726 5727 5728 5725 5720 5717 5716 5711 5708 5703 5701 5699 5696 5693 5689 5686 5683 5680 5678 5676 5673 5670 5667 5665 5662 5660 5658 5656 5654 5651 5648 5644 5641 5637 5634 5632 5630 5629 5627 5625 5623 5623
5725 5719 5720 5718 5723 5720 5713 5714 5712 5708 5706 5703 5699 5695 5697 5692 5689 5683 5679 5676 5673 5671 5669 5667 5664 5661 5658 5655 5653 5652 5650 5648 5645 5642 5639 5636 5633 5631 5629 5627 5625 5623 5622 5620
5721 5713 5709 5712 5718 5713 5703 5709 5707 5703 5703 5698 5690 5689 5690 5685 5681 5677 5675 5673 5669 5667 5665 5663 5660 5657 5654 5652 5650 5649 5648 5646 5643 5640 5637 5634 5632 5631 5628 5627 5624 5622 5619 5618
5711 5708 5708 5709 5704 5690 5704 5714 5708 5701 5698 5698 5691 5688 5685 5681 5678 5677 5674 5670 5666 5664 5661 5659 5656 5655 5653 5651 5650 5647 5646 5644 5641 5638 5635 5634 5631 5630 5627 5625 5622 5620 5617 5615
5709 5703 5703 5701 5698 5696 5702 5704 5701 5693 5690 5693 5688 5684 5683 5681 5677 5676 5673 5668 5663 5661 5658 5656 5654 5653 5651 5649 5647 5645 5643 5641 5640 5637 5634 5633 5631 5629 5626 5624 5621 5618 5616 5614
5703 5700 5698 5695 5686 5684 5693 5701 5703 5693 5682 5690 5685 5680 5678 5674 5668 5670 5668 5665 5662 5658 5656 5654 5652 5651 5648 5647 5645 5643 5642 5640 5638 5636 5634 5633 5630 5627 5625 5622 5620 5618 5616 5615
5692 5690 5690 5689 5683 5689 5695 5696 5693 5676 5676 5683 5681 5677 5673 5669 5666 5666 5665 5661 5658 5655 5653 5651 5650 5648 5646 5645 5643 5641 5640 5638 5637 5636 5634 5632 5630 5627 5624 5621 5619 5618 5617 5615
5689 5687 5684 5684 5678 5679 5689 5686 5678 5675 5678 5678 5676 5673 5669 5668 5666 5664 5661 5658 5655 5652 5650 5649 5647 5646 5645 5643 5641 5639 5637 5638 5637 5636 5633 5631 5629 5627 5625 5621 5619 5618 5616 5614
5685 5685 5686 5682 5681 5681 5683 5679 5678 5676 5673 5672 5671 5670 5666 5664 5662 5661 5658 5655 5653 5650 5648 5646 5645 5644 5643 5641 5640 5638 5637 5637 5636 5634 5633 5631 5629 5627 5625 5622 5621 5620 5617 5617
5679 5678 5675 5672 5677 5677 5677 5677 5675 5672 5669 5668 5667 5665 5663 5660 5659 5657 5655 5652 5650 5648 5645 5644 5643 5642 5641 5640 5640 5638 5638 5637 5635 5634 5632 5631 5629 5628 5626 5625 5624 5622 5620 5618
5671 5668 5666 5664 5669 5669 5670 5669 5668 5666 5664 5662 5661 5660 5659 5657 5655 5653 5651 5650 5648 5645 5644 5643 5641 5640 5640 5640 5639 5639 5638 5636 5635 5634 5633 5632 5632 5630 5627 5625 5621 5621 5617 5615
5666 5662 5658 5659 5662 5658 5660 5662 5661 5657 5655 5655 5653 5653 5654 5653 5651 5649 5648 5646 5645 5643 5642 5641 5640 5640 5639 5639 5639 5639 5638 5636 5634 5633 5633 5634 5634 5631 5630 5627 5624 5617 5616 5612